Regional Weather Roundup
Issued by NWS

Home | Current Version | Previous Version | Graphics & Text | Print | Product List | Glossary On
Versions: 1 2 3 4 5 6 7 8 9 10 11 12 13 14 15 16 17 18 19 20 21 22 23 24 25 26 27 28 29 30 31 32 33 34 35 36 37 38 39 40 41 42 43 44 45 46 47 48 49 50
000
ASUS43 KLOT 251208
RWRIL

ILLINOIS REGIONAL WEATHER ROUNDUP
NATIONAL WEATHER SERVICE CHICAGO/ROMEOVILLE IL
700 AM CDT SUN SEP 25 2016

NOTE: "FAIR" INDICATES FEW OR NO CLOUDS BELOW 12,000 FEET WITH NO
SIGNIFICANT WEATHER AND/OR OBSTRUCTIONS TO VISIBILITY.

* THESE STATIONS ARE NOT UNDER NWS QUALITY CONTROL. THEY ALSO MAY NOT
  REPORT WEATHER SUCH AS PRECIPITATION OR FOG.

ILZ001-002-007-009-015-016-024-251300-
NORTHWEST ILLINOIS

CITY           SKY/WX    TMP DP  RH WIND       PRES   REMARKS
MOLINE         CLOUDY    69  65  86 SE6       30.00F FOG
6HR MIN TEMP:  66; 6HR MAX TEMP:  70;

STERLING*      PTCLDY    67  65  93 VRB5      30.04S FOG
SAVANNA*       PTCLDY    68  65  92 SE9       30.01S FOG
$$

ILZ003-004-008-010-011-017-018-251300-
NORTH CENTRAL ILLINOIS

CITY           SKY/WX    TMP DP  RH WIND       PRES   REMARKS
ROCKFORD       MOCLDY    66  63  90 S9        30.06F
6HR MIN TEMP:  65; 6HR MAX TEMP:  67;

FREEPORT*      PTCLDY    65  64  95 SE9       30.04F FOG
ROCHELLE*      PTCLDY    65  64  94 SE8       30.06S
DE KALB*       CLEAR     63  61  94 SE10      30.08S
$$

ILZ005-006-012>014-019>023-251300-
NORTHEAST ILLINOIS

CITY           SKY/WX    TMP DP  RH WIND       PRES   REMARKS
CHICAGO-OHARE  PTCLDY    63  58  83 SE10      30.09S
6HR MIN TEMP:  63; 6HR MAX TEMP:  69;

CHICAGO-MIDWAY PTCLDY    65  56  72 SE7       30.09F
6HR MIN TEMP:  65; 6HR MAX TEMP:  70;

AURORA         CLEAR     64  60  87 SE8       30.08F
6HR MIN TEMP:  64; 6HR MAX TEMP:  68;

LANSING*       CLEAR     61  57  86 SE9       30.11F
JOLIET*        CLEAR     64  61  90 SE7       30.09F
WAUKEGAN       MOCLDY    65  61  87 SE13      30.08F
6HR MIN TEMP:  65; 6HR MAX TEMP:  68;

DUPAGE AIRPORT CLEAR     63  58  83 SE7       30.08F
6HR MIN TEMP:  63; 6HR MAX TEMP:  67;

KANKAKEE*      CLEAR     62  59  91 SE7       30.11S
WHEELING       PTCLDY    63  59  87 SE6       30.10F
6HR MIN TEMP:  63; 6HR MAX TEMP:  67;

MORRIS*        CLEAR     63  61  94 SE5       30.07F
ROMEOVILLE*    CLEAR     62  61  96 SE7       30.09F
NORTHERLY ISL    N/A     65  57  75 SE8         N/A
$$

LMZ740>746-251300-
SOUTHERN LAKE MICHIGAN

STATION/POSITION SKY/WX   TEMP    WIND        PRES    VSBY  WAVE
                          AIR SEA DIR/SP/G                  HT/PER
                          (F)     (DEG/KT/KT) (MB)    (MI)  (FT/S)
SOUTHERN BUOY              67 72  140/ 17/ 23 1019.1S         4/ 5
WILMETTE HARBOR            65 64  170/ 16/ 19   N/A           4/ 4
HARRISON CRIB              67     160/ 15/ 17   N/A
BURNHAM HARBOR             64     120/  8/ 11   N/A
CALUMET HARBOR             64     150/  9/ 11 1019.0S
BURNS HARBOR               63     150/ 15/ 21 1019.6F
MICHIGAN CITY              62     120/ 15/ 21   N/A
MICHIGAN CITY 6N           62 67  150/ 12/ 14   N/A           2/ 2
ST. JOSEPH                 62 68  130/ 12/ 14 1020.4R         1/ 2
$$

ILZ025>027-034>036-040-047-049-050-058-095>099-251300-
WEST-CENTRAL ILLINOIS

CITY           SKY/WX    TMP DP  RH WIND       PRES   REMARKS
QUINCY         MOCLDY    71  67  87 S7        30.03R FOG
GALESBURG*     CLOUDY    66  64  93 SE5       30.03S
MACOMB*        CLOUDY    65  65  97 SE3       30.04S FOG
JACKSONVILLE*  CLEAR     72  66  83 S3        30.04S
PITTSFIELD*    CLOUDY    67  67  98 S3        30.05S FOG
$$

ILZ028>032-037-038-041>044-048-051>054-059>061-251300-
CENTRAL ILLINOIS

CITY           SKY/WX    TMP DP  RH WIND       PRES   REMARKS
PONTIAC        CLEAR     65  65 100 SE7       30.08F FOG
BLOOMINGTON    PTCLDY    67  66  97 SE9       30.09S FOG
DECATUR        CLEAR     66  64  93 CALM      30.08S FOG
PEORIA         CLEAR     69  68  96 SE5       30.05S FOG
6HR MIN TEMP:  69; 6HR MAX TEMP:  73;

LACON*         CLEAR     65  64  96 SE3       30.05R FOG
LINCOLN*       PTCLDY    66  66 100 CALM      30.06S FOG
SPRINGFIELD    CLEAR     68  64  87 SE6       30.06R
6HR MIN TEMP:  67; 6HR MAX TEMP:  73;

TAYLORVILLE    CLEAR     67  65  96 SE3       30.07S FOG
6HR MIN TEMP:  66; 6HR MAX TEMP:  70;

$$

ILZ033-039-045-046-055>057-062-063-251300-
EAST-CENTRAL ILLINOIS

CITY           SKY/WX    TMP DP  RH WIND       PRES   REMARKS
CHAMPAIGN      PTCLDY    65  63  93 E7        30.09S FOG
RANTOUL*         N/A     65  65  97 E5        30.10S FOG
MATTOON        CLEAR     68  66  93 SE8       30.08S FOG
PARIS*         CLOUDY    65  65 100 CALM      30.11S FOG
$$

ILZ079-100>102-251300-
SOUTHWEST ILLINOIS

CITY           SKY/WX    TMP DP  RH WIND       PRES   REMARKS
ALTON          PTCLDY    64  64 100 CALM      30.06S FOG
BELLEVILLE     PTCLDY    67  67 100 CALM      30.05S
CAHOKIA*       PTCLDY    68  65  90 SE5       30.05R
SPARTA*        CLEAR     68  67  98 CALM      30.08R
$$

ILZ064>066-069>071-074>076-080>082-084>086-088>090-092>094-251300-
SOUTH-CENTRAL ILLINOIS

CITY           SKY/WX    TMP DP  RH WIND       PRES   REMARKS
CARBONDALE     FOG       65  65 100 CALM      30.07S VSB 1/4
6HR MIN TEMP:  64; 6HR MAX TEMP:  70;

CAIRO*         FOG       65  65 100 CALM      30.07R VSB 3/4
EFFINGHAM*     CLOUDY    66  66 100 E3        30.10S FOG
MARION         CLEAR     70  70 100 SE6       30.08S
MT. VERNON     CLEAR     63  57  82 NE3       30.08S
CENTRALIA*     CLEAR     66  66 100 CALM      30.06F FOG
SALEM*         CLEAR     68  66  92 CALM      30.08R FOG
METROPOLIS*    CLEAR     67  66  98 CALM      30.08R FOG
$$

ILZ067-068-072-073-078-083-087-091-251300-
SOUTHEAST ILLINOIS

CITY           SKY/WX    TMP DP  RH WIND       PRES   REMARKS
LAWRENCEVILLE  FOG       66  64  93 NE3       30.10R VSB 1
FLORA*         CLEAR     66  64  94 CALM      30.09R FOG
FAIRFIELD*       N/A     67  66  97 CALM      30.08R
HARRISBURG*    CLEAR     65  65 100 CALM      30.08R FOG
ROBINSON*      FOG       61  61 100 CALM      30.11R VSB<1/4
CARMI*         FOG       64  64 100 CALM      30.08R VSB 1/4
$$

ABBREVIATIONS USED IN REMARKS
   TC - TEMPERATURE IN CELSIUS
  WCI - WIND CHILL INDEX
   HX - HEAT INDEX
  VSB - VISIBILITY
$$




USA.gov is the U.S. government's official web portal to all federal, state and local government web resources and services.